Theta_e
335 332 333 330 329 327 322 318 302 309 306 300 302 304 304 310 310 308 308 311 308 317 321 324 321 326 328 323 326 328 333 328 329 316 322 341 350 352 353 353 353 353 352 352 352 354 354 354 354 354 354 354 354 354 353 353 352 352 351 351 350 349 349 349 349 348 349 349 349 349 351 351 350 350 350 350 351 351 350 351 351 351 351 350 350 351 351 351 351 351 351 350 350 349 350 350 350
332 329 326 328 325 323 315 317 306 303 304 301 303 306 307 309 308 306 307 309 321 322 324 325 328 329 329 326 323 324 333 338 337 337 342 348 352 353 354 355 353 352 352 352 352 352 352 354 353 353 353 353 353 352 352 352 352 351 350 350 349 349 348 348 348 348 348 348 347 349 350 351 351 350 350 351 351 351 350 351 351 351 351 351 351 351 351 350 350 350 350 350 349 349 349 349 349
326 323 325 323 323 318 318 314 300 302 300 298 303 307 311 306 307 308 311 318 322 323 327 327 328 328 321 323 320 324 321 339 342 343 342 349 344 348 354 355 354 353 352 352 351 350 351 352 352 352 352 352 352 352 351 351 350 350 350 349 348 348 348 348 348 347 347 347 347 347 348 351 351 350 351 352 352 351 351 351 351 352 352 351 351 350 350 349 350 350 349 350 349 349 348 348 347
327 326 324 322 314 316 307 306 302 300 299 302 303 308 307 307 309 312 316 320 323 324 323 321 321 327 327 320 321 329 326 334 341 341 340 346 346 351 355 355 357 353 353 350 350 350 351 353 352 352 351 351 351 351 350 350 349 349 349 349 348 348 347 347 347 347 347 346 346 346 347 350 351 351 351 351 352 352 351 350 350 351 351 350 351 350 350 349 349 350 349 350 350 349 348 347 346
323 324 322 320 314 310 306 304 304 303 298 302 302 306 307 308 310 311 314 319 321 323 324 323 320 325 331 329 334 324 326 337 339 342 343 347 352 354 354 355 355 353 351 350 349 349 351 351 352 351 351 350 350 350 350 349 349 349 349 348 348 348 347 346 346 347 346 346 345 346 346 348 348 349 350 351 352 352 351 351 349 350 350 349 348 348 349 348 348 348 349 349 349 348 347 345 345
322 321 319 318 311 318 311 303 302 301 305 307 304 307 309 311 310 311 312 317 321 324 324 321 321 318 325 333 335 332 339 332 340 342 345 346 352 355 354 355 354 353 351 352 351 351 352 352 351 351 351 350 350 350 349 349 349 349 349 348 348 347 346 346 346 346 346 346 345 345 346 346 346 347 350 352 353 353 351 351 350 349 349 348 347 347 348 348 348 348 349 349 349 348 347 345 344
317 316 316 312 313 313 303 302 301 303 305 308 306 308 309 310 311 311 311 315 318 321 323 323 325 322 320 333 337 341 345 341 335 341 346 350 354 355 355 355 353 352 352 351 353 352 350 351 351 351 350 350 350 349 349 349 349 349 349 348 347 346 346 346 346 346 346 345 345 345 346 346 346 349 351 351 351 352 351 349 349 348 348 347 347 347 347 348 348 349 349 349 348 347 346 344 343
322 314 314 306 305 305 300 301 302 306 305 308 308 310 311 312 311 311 311 312 313 315 319 323 321 320 321 333 326 340 345 345 343 348 350 352 354 354 354 354 353 352 351 353 354 353 353 351 351 350 350 351 350 349 349 349 349 349 348 347 347 346 347 347 347 346 346 346 345 345 346 346 347 348 350 350 350 350 350 349 348 348 347 346 346 347 349 349 349 349 348 347 347 346 345 344 343
316 314 319 308 302 306 302 301 303 308 308 308 308 311 317 312 312 311 310 313 315 318 317 321 322 318 317 328 329 337 343 346 348 351 351 352 353 354 353 353 352 352 352 353 354 352 350 351 350 350 350 350 350 349 350 349 349 348 348 347 347 347 347 347 346 346 346 346 345 345 345 346 347 349 349 349 349 349 349 349 348 348 347 346 345 347 348 348 349 349 348 347 346 346 345 344 342
313 310 306 304 305 300 302 302 302 305 306 308 307 309 310 312 311 312 312 310 315 320 319 324 321 319 326 323 332 335 341 348 350 348 351 353 353 353 354 354 353 352 352 353 352 349 348 352 350 350 350 350 350 350 350 349 349 348 348 347 347 348 347 347 347 346 346 346 346 346 346 347 349 350 350 349 349 349 349 348 347 347 346 345 345 346 348 348 348 348 348 347 346 346 344 343 342
308 310 311 305 301 299 300 302 303 306 306 308 308 311 312 312 312 310 312 312 319 319 320 323 317 321 326 329 335 345 347 347 347 346 351 351 353 353 352 355 355 354 352 354 353 350 349 349 352 350 350 350 350 350 349 350 349 349 349 349 349 349 349 349 348 348 347 348 348 348 349 350 350 349 349 348 348 348 348 347 346 346 347 345 345 346 348 348 348 348 347 347 345 344 344 342 341
306 306 306 299 300 300 301 302 304 305 306 307 307 311 312 311 311 310 310 313 317 320 318 318 319 324 323 326 332 341 347 348 350 350 351 352 352 353 353 353 353 354 355 353 352 350 349 349 349 352 350 350 350 350 350 350 350 349 349 350 350 349 350 350 350 349 350 352 351 351 350 349 349 348 348 347 347 347 347 346 346 346 346 345 345 346 348 348 348 347 347 346 345 344 343 341 341
306 310 304 300 300 302 304 303 303 304 305 306 308 310 312 311 310 311 311 317 319 317 317 326 323 326 321 329 335 343 343 349 351 353 352 351 351 352 353 353 353 354 353 353 352 349 351 349 347 349 348 350 350 350 350 350 350 350 350 350 350 349 349 349 350 350 351 352 351 350 349 349 348 347 347 346 347 347 346 346 346 347 346 345 345 346 348 349 348 347 346 346 345 343 342 342 341
307 310 307 301 305 304 303 302 304 301 303 308 310 311 312 311 312 313 314 316 317 318 324 328 324 330 328 330 335 337 341 350 352 354 351 351 352 351 353 353 354 353 354 353 351 351 351 351 352 348 350 349 348 350 350 350 350 350 350 350 350 350 349 349 349 350 350 351 350 349 349 349 349 347 347 346 345 345 345 346 345 345 345 345 344 346 348 349 348 347 346 345 344 343 342 341 340
307 312 307 304 303 303 304 300 302 301 304 308 310 312 311 319 316 317 318 317 323 328 329 335 330 326 322 323 325 331 340 348 351 353 352 351 352 352 351 353 353 352 351 351 352 351 351 352 350 350 350 348 348 346 348 350 350 350 349 349 349 349 349 349 349 349 350 350 349 349 349 350 349 348 348 346 345 344 345 344 345 345 345 345 344 346 348 348 348 346 346 345 344 343 342 341 339
311 311 306 302 300 301 302 302 305 303 304 309 311 316 313 318 322 318 324 325 326 328 326 324 336 328 324 326 327 334 344 348 352 352 351 349 349 352 353 353 350 351 351 352 352 352 351 353 352 350 348 349 348 348 346 349 350 349 349 349 349 349 349 349 349 349 349 349 349 349 349 350 350 350 348 348 347 346 345 345 345 345 345 345 344 346 348 348 348 347 346 344 343 343 341 340 339
312 310 302 302 300 301 303 302 304 302 306 310 314 315 314 314 320 326 329 327 322 322 331 331 329 334 330 328 335 344 344 350 350 349 348 346 346 349 349 352 350 351 352 352 352 354 354 351 350 349 348 350 348 346 347 346 347 350 350 349 349 349 349 349 349 349 348 349 349 349 350 350 350 350 349 348 348 346 346 346 345 344 344 345 345 347 347 348 348 346 346 344 343 342 341 340 339
310 303 302 301 302 302 305 304 306 308 307 309 312 314 316 314 317 321 325 323 324 323 326 329 332 332 335 337 340 345 346 347 348 345 343 342 343 343 348 346 349 346 349 349 351 352 353 353 351 346 348 346 348 345 346 348 349 348 347 349 348 349 349 349 350 348 348 349 349 349 350 348 348 349 348 348 347 348 347 345 345 344 344 345 346 347 347 347 347 346 345 344 343 342 340 339 339
305 304 303 301 303 305 308 308 308 308 307 310 313 316 318 316 318 320 320 321 321 320 324 330 328 330 334 338 343 344 343 345 345 344 342 341 339 341 342 347 346 345 345 348 350 351 351 352 350 347 345 347 343 344 343 347 346 346 346 346 347 348 349 350 348 348 347 346 347 346 349 352 352 349 350 347 346 346 347 345 344 344 345 346 346 346 346 346 347 346 345 344 342 342 341 341 339
308 305 301 303 307 307 309 309 308 309 309 308 311 313 317 319 320 320 318 317 319 317 319 323 324 326 333 333 339 342 342 344 345 344 341 340 339 341 341 342 345 346 345 347 348 346 350 348 349 348 347 344 345 345 342 346 349 351 348 345 347 346 347 347 346 347 346 345 346 349 353 351 350 347 345 346 346 347 347 345 344 344 344 345 345 346 346 346 346 345 344 343 343 340 344 341 339
307 305 304 304 308 305 308 310 309 309 309 308 310 313 317 319 320 317 319 317 316 318 321 321 322 323 328 333 336 340 341 343 344 344 342 339 341 343 342 341 343 345 348 346 345 344 348 351 349 349 349 348 346 343 343 346 346 346 346 351 348 348 348 347 347 347 347 346 349 349 349 348 348 346 346 348 345 348 344 344 344 343 344 343 345 342 344 348 347 345 345 342 340 342 344 344 343
309 305 308 307 307 305 308 310 309 309 309 309 310 309 315 320 317 318 319 314 314 318 320 322 323 327 326 331 335 339 340 343 342 341 340 341 341 341 343 344 347 346 347 344 344 345 344 347 347 347 347 347 345 344 345 345 346 343 347 349 351 349 345 350 351 349 347 346 349 348 348 348 345 345 346 343 345 342 345 343 341 341 339 338 339 339 338 343 344 344 342 340 341 344 346 346 344
303 307 307 308 308 306 309 310 309 309 308 307 307 308 312 312 313 319 318 313 317 322 323 324 325 327 331 333 334 338 338 342 341 339 341 340 341 342 344 343 344 346 345 342 347 346 343 345 345 347 346 346 343 346 345 343 343 347 348 349 347 347 347 345 348 351 347 345 346 347 346 345 343 343 345 343 342 344 343 344 344 341 340 337 337 339 338 340 340 342 341 340 341 342 343 344 341
305 304 306 306 308 307 310 310 309 309 308 307 308 310 309 308 308 318 315 316 319 323 325 327 327 329 332 332 333 339 340 340 340 342 342 344 344 344 345 344 346 347 343 347 345 345 346 344 346 345 345 348 341 344 342 344 347 346 346 347 347 344 345 346 346 350 347 345 344 346 347 345 343 342 340 344 344 345 343 342 342 346 342 337 335 340 338 338 339 343 343 341 340 342 341 342 340
303 303 307 307 307 308 310 310 309 309 309 309 309 307 307 309 311 316 312 315 318 321 327 326 326 328 331 333 336 339 339 340 341 344 345 345 347 347 346 345 345 343 341 342 347 348 347 347 346 344 345 345 346 345 344 345 348 349 346 347 347 346 344 346 351 347 345 345 344 344 343 343 343 342 343 343 344 341 340 342 341 344 339 340 338 338 338 338 340 343 344 342 343 342 342 342 339
305 304 307 306 306 308 309 309 309 309 309 309 307 307 309 309 313 312 312 316 320 322 325 326 326 327 330 333 336 338 338 340 344 344 343 344 347 344 339 336 337 338 343 344 344 348 347 351 347 347 349 346 344 345 349 349 349 349 348 346 346 346 346 346 346 346 347 346 346 345 343 343 343 342 342 344 344 342 341 337 340 342 341 340 340 338 337 337 338 340 343 343 339 341 341 341 338
307 305 306 306 306 307 309 308 309 309 308 308 307 306 307 309 309 306 312 317 319 322 324 324 324 325 328 333 336 337 337 341 344 344 344 344 344 338 338 338 336 338 341 343 343 345 347 347 345 348 351 352 348 348 349 348 347 348 346 345 344 342 343 345 345 346 345 348 347 346 345 344 340 340 339 341 342 342 342 341 341 343 344 344 344 342 340 339 339 339 341 340 341 340 341 341 337
307 306 305 306 306 307 308 309 308 309 307 309 308 306 308 309 308 308 314 318 320 322 322 322 322 324 329 331 334 336 337 343 344 343 340 338 336 338 336 337 338 341 342 341 342 346 347 347 347 348 350 353 352 346 349 349 346 345 343 341 340 341 342 345 346 345 345 348 346 345 344 343 343 343 341 340 342 344 342 341 339 343 342 347 344 342 341 340 340 337 338 340 341 342 341 341 340
307 306 301 304 305 304 308 306 308 309 307 309 309 306 304 305 308 315 318 320 321 322 321 321 322 324 329 332 332 332 335 340 342 341 338 338 340 339 336 336 339 342 343 345 345 345 347 349 347 346 348 352 351 350 345 348 348 346 342 341 341 342 345 346 344 345 340 345 348 348 345 344 342 341 341 337 339 341 340 339 339 342 343 344 343 343 343 344 341 340 340 341 340 339 340 341 340
307 305 303 302 302 301 306 308 308 307 308 309 308 297 301 304 309 313 315 321 322 321 319 320 322 324 328 330 332 334 337 339 341 337 337 338 339 339 339 341 342 343 343 344 345 344 346 348 349 347 350 350 351 351 350 347 345 344 346 348 348 349 347 348 348 347 345 346 349 347 344 340 341 343 342 341 341 339 339 339 340 338 343 345 344 344 342 341 341 339 339 339 339 338 337 339 338
301 303 304 300 298 298 306 306 307 305 308 308 308 299 301 305 308 312 317 317 320 319 319 321 323 324 330 329 333 335 337 338 341 341 339 339 340 340 340 341 343 344 344 343 341 341 343 346 346 346 347 350 349 349 348 350 348 348 347 346 346 348 349 348 347 348 347 347 346 345 343 340 341 344 343 343 340 340 336 338 340 342 341 345 345 343 343 342 340 340 339 337 340 338 337 339 338
303 298 296 301 298 299 304 307 307 303 306 308 306 300 303 306 308 311 314 318 315 316 319 323 324 326 329 333 331 331 334 338 339 340 339 340 340 340 340 340 342 343 344 342 342 343 343 346 345 346 345 346 348 347 349 348 347 347 347 345 347 349 347 347 348 348 348 346 347 346 346 345 344 343 343 342 337 338 341 340 343 342 339 342 342 344 344 340 341 340 340 339 337 338 338 337 337
301 298 297 297 299 299 301 304 307 308 306 307 305 301 307 308 311 313 316 317 315 315 318 322 324 327 327 331 332 332 333 335 336 337 339 340 340 341 341 342 342 342 343 342 342 342 343 345 344 345 344 344 345 346 345 345 346 345 347 348 348 348 346 346 346 349 348 347 346 346 347 346 345 345 344 343 342 339 340 340 342 340 340 342 339 336 342 340 341 339 340 339 339 337 337 336 337
297 300 298 299 298 300 298 304 307 307 306 302 306 304 307 309 311 312 314 316 313 315 317 322 327 326 331 330 329 331 335 334 334 335 338 339 339 340 341 340 341 342 343 343 341 340 341 343 344 343 343 344 344 344 345 344 345 346 347 346 348 346 347 346 347 347 346 345 347 345 347 347 345 345 343 343 343 339 340 341 342 341 341 342 339 338 335 335 336 341 338 341 338 338 333 335 336
296 297 298 298 300 301 300 299 303 306 306 303 303 306 307 309 312 314 314 315 314 315 317 321 325 327 329 329 329 331 334 334 335 336 338 339 340 340 339 340 340 340 341 341 340 341 341 341 342 341 344 345 344 342 342 343 344 344 344 345 345 346 346 347 347 346 346 346 345 346 347 347 347 347 346 345 339 337 339 341 342 341 341 342 339 337 335 335 336 336 333 334 340 339 340 333 335
299 299 299 300 298 299 299 303 306 305 302 302 302 304 307 308 311 314 316 314 315 320 323 321 322 326 328 331 329 328 329 333 336 338 338 338 338 339 338 339 339 339 340 340 340 341 341 342 342 342 343 344 345 345 344 343 344 342 340 342 340 341 344 344 347 346 348 346 347 347 347 348 347 348 346 345 345 340 339 342 341 341 341 340 340 340 337 336 336 334 335 334 336 334 336 335 338
302 301 300 301 299 300 303 303 305 306 303 302 303 307 308 309 312 315 317 319 320 323 324 324 325 327 327 326 326 329 329 330 336 336 337 337 337 338 338 337 338 338 338 340 340 340 340 340 340 340 341 344 345 343 344 343 342 343 342 341 339 338 339 343 345 346 346 346 347 347 347 346 344 344 343 344 342 342 342 343 341 341 339 338 341 340 339 340 339 337 337 339 331 333 331 336 330
302 300 299 299 300 298 303 303 305 306 303 302 305 306 309 312 313 315 318 319 318 320 321 322 324 326 324 324 323 324 325 329 330 331 334 336 336 337 338 338 338 336 338 339 339 339 339 340 340 341 342 342 342 342 345 345 346 344 341 341 341 341 339 339 339 344 346 346 345 344 345 345 344 344 344 344 343 342 341 341 341 342 342 341 340 341 340 341 338 336 337 336 336 334 334 333 333
302 300 299 299 299 302 303 303 304 305 304 304 307 305 308 311 313 316 318 318 319 321 321 322 322 322 323 323 323 324 324 322 324 324 325 325 328 330 334 334 335 335 336 337 338 339 339 339 340 341 341 342 342 342 341 342 345 345 342 339 341 339 340 342 342 343 344 345 346 346 345 345 345 343 343 343 342 342 342 341 342 342 342 341 339 336 339 339 338 336 336 334 335 336 335 335 334
301 300 298 297 300 299 295 302 304 306 305 305 307 305 307 313 315 316 317 317 317 318 319 319 320 318 318 317 318 319 319 319 318 319 320 322 323 326 327 329 331 331 332 333 334 335 337 338 339 339 340 341 341 342 341 342 342 344 344 345 341 339 338 339 342 345 342 344 344 345 345 344 343 344 343 342 341 341 342 340 342 341 341 339 339 337 338 337 336 335 338 336 334 332 332 331 335
301 300 299 299 299 300 300 301 304 306 307 308 306 304 306 307 309 311 315 317 316 316 317 317 318 318 318 317 316 316 315 315 315 316 317 318 319 320 322 324 327 327 328 330 331 332 333 334 337 339 339 340 341 341 342 343 343 344 344 344 345 343 340 339 342 338 344 343 343 343 343 342 341 341 342 341 341 341 341 341 339 339 340 340 339 338 337 336 335 337 337 336 335 332 330 332 333
298 301 301 301 302 301 300 301 300 298 299 305 304 296 297 305 306 309 312 313 312 315 314 314 314 315 315 313 313 314 315 315 315 314 315 316 317 318 319 320 322 323 323 326 329 329 331 333 335 337 339 340 342 345 345 344 343 341 340 338 337 337 335 338 335 334 335 340 339 343 344 342 340 340 341 342 342 341 341 341 341 339 341 340 340 339 338 337 334 337 337 338 333 335 332 330 327
297 298 303 302 303 301 301 300 300 295 294 302 306 296 291 303 304 307 310 311 310 312 312 312 312 311 311 311 312 312 312 313 314 314 315 315 315 316 317 318 319 320 322 325 326 327 328 330 333 336 337 337 339 341 342 343 343 341 341 336 338 335 333 333 337 338 338 340 343 342 342 344 342 341 342 342 341 341 341 341 341 341 339 340 339 338 336 337 335 336 337 337 337 334 330 327 329
296 303 302 303 301 301 301 300 300 298 303 305 304 301 296 297 302 309 311 309 308 308 309 310 310 310 310 310 310 311 311 313 313 313 314 315 315 316 316 317 318 319 322 324 325 326 327 328 330 332 335 337 338 339 339 341 340 339 338 338 335 334 336 332 337 339 342 341 339 341 341 341 342 343 341 341 340 341 341 341 340 340 339 339 340 337 336 336 336 336 336 336 338 336 333 332 330
300 303 303 301 301 301 302 301 299 300 299 297 299 302 295 297 304 309 309 306 307 306 308 309 309 309 309 309 310 311 312 312 312 312 313 313 314 315 316 317 319 320 321 322 323 324 325 326 327 330 331 332 333 334 335 336 338 339 338 339 338 336 335 335 339 338 338 338 339 340 340 340 341 343 341 340 340 341 341 340 340 339 339 338 337 337 338 336 336 335 335 332 334 335 335 333 332
303 305 304 303 303 302 302 300 299 299 297 291 297 300 294 295 304 305 308 306 305 306 307 308 309 309 308 308 310 311 311 312 313 313 314 314 315 316 317 318 318 319 320 322 323 324 325 326 326 327 327 329 331 332 333 333 335 336 337 337 337 337 336 339 340 337 336 337 336 337 338 339 339 340 342 341 341 341 342 341 340 339 339 337 336 336 336 336 337 336 334 335 337 333 333 333 331
305 305 301 301 301 301 302 301 300 297 290 294 298 301 298 293 302 303 303 303 308 307 307 307 308 309 309 309 309 310 311 311 312 313 314 315 316 316 318 317 318 320 321 322 322 323 324 324 325 325 326 327 328 329 330 331 334 335 335 336 337 336 337 337 338 338 336 335 335 339 339 337 338 339 340 342 341 341 341 341 340 339 339 338 337 335 336 336 336 336 336 335 335 333 331 332 332
303 301 299 298 297 299 298 297 299 290 288 296 300 299 299 290 297 304 308 311 310 308 306 306 306 307 307 308 309 310 311 311 311 311 312 314 315 316 317 316 317 318 320 320 321 321 322 323 323 324 325 325 326 328 329 330 331 332 333 334 334 335 337 336 336 335 337 333 334 334 337 337 336 337 339 339 341 342 341 340 341 339 338 338 336 337 337 336 338 336 335 334 333 334 333 332 332
301 300 298 293 290 290 287 292 287 288 288 296 299 299 295 293 302 307 308 309 309 309 307 306 306 306 307 308 308 309 311 311 311 311 312 313 313 314 315 316 317 317 317 318 319 320 320 321 322 322 323 324 325 326 326 327 329 329 330 332 333 333 334 335 335 335 336 333 333 335 337 336 335 333 335 338 339 341 340 339 339 338 337 337 337 337 338 338 337 335 335 335 334 333 334 334 333
298 297 295 292 287 285 282 287 290 291 294 299 299 301 294 301 304 308 307 308 308 308 308 308 307 307 307 308 309 309 310 310 311 312 312 312 312 313 314 315 315 316 316 317 318 318 319 319 320 320 321 323 324 325 325 325 326 328 329 330 331 332 332 333 334 333 335 335 335 335 336 334 336 335 335 335 341 336 339 339 339 338 338 338 337 337 337 338 338 335 335 335 334 334 335 335 334
298 300 297 294 293 288 282 287 284 287 291 296 299 295 294 295 298 309 308 309 310 310 309 309 309 308 308 308 309 310 310 310 311 311 311 312 313 314 314 314 315 315 316 316 316 317 317 318 318 319 320 321 322 323 324 324 325 326 327 328 329 330 330 331 332 333 332 333 334 335 335 335 336 337 336 338 337 338 340 339 339 338 338 339 338 337 337 337 338 337 335 335 334 334 334 334 334
299 300 300 296 294 298 289 291 292 291 291 291 295 293 300 299 307 308 310 309 309 310 308 309 308 309 309 307 307 308 309 309 310 310 310 311 312 313 313 314 314 314 315 316 315 316 316 316 317 318 319 320 321 321 322 323 324 325 326 327 326 326 327 329 330 333 334 335 334 334 334 336 336 337 337 338 338 336 338 340 338 338 339 339 335 336 337 335 338 338 336 337 335 338 336 335 335
297 297 293 296 303 300 292 292 297 293 292 288 296 297 300 304 306 306 307 307 307 309 308 307 307 307 307 306 306 307 307 308 309 309 310 311 311 312 312 313 313 313 314 315 315 315 315 316 316 316 317 319 319 320 321 321 322 323 324 325 326 326 327 326 327 329 332 335 335 335 335 335 337 337 338 339 336 332 335 338 336 334 334 336 336 338 338 339 338 334 336 336 336 336 334 333 333
298 292 297 302 304 303 296 288 290 289 286 288 297 293 295 297 292 305 305 304 305 306 306 306 306 306 304 305 305 306 306 307 309 309 310 311 311 311 312 313 314 313 314 314 315 316 316 317 317 317 317 317 318 319 319 320 320 321 322 323 323 325 326 327 328 328 330 333 334 335 335 335 335 335 336 338 337 333 332 336 334 335 334 335 335 337 335 335 335 336 336 337 337 336 335 334 335
299 297 304 296 290 290 296 292 285 284 284 288 293 296 296 298 298 301 301 302 303 304 305 304 304 304 304 304 305 306 307 308 308 308 309 309 310 311 311 312 313 314 314 315 315 316 317 317 317 318 318 317 318 318 319 320 320 320 320 320 322 323 325 325 326 326 327 329 332 333 334 334 335 336 336 335 335 334 332 331 334 334 333 332 336 336 335 335 337 336 335 337 338 336 335 335 336
303 304 299 302 299 295 291 292 294 292 285 286 289 293 289 299 302 303 302 304 304 303 304 304 303 304 304 305 305 305 306 306 307 308 308 309 310 311 311 312 312 313 313 314 315 315 316 316 317 317 318 318 318 318 318 318 319 318 318 319 321 321 322 322 323 324 325 327 329 332 333 334 334 334 334 335 334 333 332 331 332 335 332 332 332 335 335 333 334 334 332 333 333 334 334 334 336
296 296 296 297 299 301 299 299 294 291 287 287 287 287 293 299 306 304 304 304 305 305 304 304 303 304 304 305 305 305 306 307 307 308 308 309 310 311 312 313 313 314 314 314 314 314 315 315 316 317 316 316 317 317 318 318 317 317 317 317 318 320 320 321 321 322 324 327 328 330 331 333 334 333 333 332 334 333 332 333 332 331 330 331 331 333 333 333 331 332 330 335 335 335 333 334 334
297 297 295 296 294 293 289 288 298 296 292 288 287 286 293 302 308 307 305 305 306 306 304 303 303 303 304 304 305 306 306 307 307 308 308 309 309 311 312 312 312 312 312 313 313 314 314 314 314 315 315 315 315 316 317 317 317 317 317 317 317 318 319 319 319 320 321 322 323 326 329 331 333 333 334 333 331 331 331 329 329 330 330 333 335 333 332 332 331 330 328 332 333 334 332 332 332
Wind_Speed
9 9 7 7 7 7 8 7 8 7 8 12 11 10 5 1 2 5 7 3 8 7 2 2 2 3 9 9 11 14 18 12 9 5 4 6 5 8 7 10 13 14 13 13 13 13 14 14 15 16 15 15 15 16 17 17 17 16 16 16 15 14 13 13 12 10 9 9 10 12 12 11 11 11 10 11 12 11 12 13 13 13 13 15 15 15 16 16 15 16 16 14 14 14 15 14 15
8 5 6 6 8 7 7 7 7 9 9 10 12 10 8 6 3 8 6 3 9 6 3 5 4 5 5 5 6 8 17 16 13 11 9 7 8 6 9 11 12 14 11 13 12 12 13 14 14 13 15 15 15 16 17 17 17 16 16 16 14 14 13 13 11 10 9 10 10 11 13 11 11 10 9 10 13 12 12 13 13 13 14 15 15 15 15 15 15 15 15 14 13 14 13 14 13
5 6 7 7 8 8 7 5 9 9 11 11 9 14 6 2 3 7 5 3 5 5 3 6 6 3 5 2 5 8 9 9 14 12 9 9 10 6 10 12 13 12 13 10 12 13 12 13 15 14 15 16 16 17 17 16 16 16 16 15 15 14 13 13 12 10 10 9 9 10 10 12 11 10 9 10 12 13 13 13 13 14 15 14 14 14 13 13 14 14 14 14 13 12 13 13 13
8 6 8 6 7 7 8 6 9 10 10 10 9 7 5 3 6 7 5 5 4 5 5 8 4 3 7 5 9 12 8 8 10 10 7 9 6 11 10 12 13 13 11 10 11 12 12 14 15 14 15 16 16 16 17 17 17 17 16 15 15 14 14 13 13 11 10 9 9 9 10 10 9 8 8 8 11 12 13 12 13 14 14 14 13 12 12 12 12 12 13 13 13 13 13 12 12
8 6 7 8 8 7 7 8 8 8 11 9 10 9 4 2 10 6 5 3 5 4 5 6 4 4 11 10 5 4 8 9 9 8 8 9 12 11 11 12 11 12 11 12 11 11 14 16 14 14 15 17 16 18 17 17 17 16 15 15 15 14 14 14 13 13 11 11 9 8 9 10 9 7 6 7 10 12 13 13 12 13 13 12 12 11 11 10 10 10 12 12 12 12 12 11 11
8 7 6 8 7 7 6 8 9 11 9 9 9 8 9 8 5 4 6 7 8 2 5 6 1 9 8 9 8 7 3 3 5 7 7 8 12 14 12 11 11 11 12 11 11 12 12 15 14 14 15 17 17 17 17 17 17 16 15 15 15 14 14 14 13 13 12 12 11 10 9 9 8 7 7 7 7 10 10 11 13 13 13 12 12 11 10 9 8 8 11 12 12 12 12 11 10
6 5 6 7 8 6 8 10 10 9 10 9 8 3 3 4 5 4 8 7 5 5 1 5 3 11 8 8 12 8 8 3 6 5 6 11 12 13 12 10 11 12 13 13 11 13 16 14 14 14 15 16 17 17 17 16 17 16 16 15 15 15 15 14 13 13 13 12 11 10 9 9 9 9 9 9 10 11 12 12 12 12 12 11 11 10 10 9 8 8 10 12 11 11 11 10 10
7 9 6 8 6 6 9 11 11 9 5 7 2 3 3 5 3 4 5 10 11 8 8 4 4 1 11 3 7 7 7 10 11 10 12 10 12 12 12 10 11 12 12 12 11 13 18 14 13 14 14 15 17 17 16 17 16 16 16 15 15 15 14 14 13 12 12 12 12 10 10 9 9 9 10 10 11 12 13 12 12 11 11 10 8 8 10 10 9 9 11 12 11 11 10 10 10
7 9 2 7 9 7 8 10 11 10 2 3 6 1 6 0 1 4 5 1 11 4 9 7 5 6 8 12 10 8 6 9 11 12 11 11 11 11 9 10 11 11 12 12 14 14 15 13 12 13 14 15 15 16 16 16 16 16 16 16 15 15 15 14 13 13 12 11 10 9 8 9 9 10 10 10 11 12 12 12 11 11 10 9 7 7 9 10 10 11 11 11 11 10 10 9 9
7 7 7 6 7 10 8 10 9 7 9 3 4 8 9 5 8 7 7 8 7 6 8 4 5 3 12 12 10 7 7 9 9 11 10 10 10 10 10 9 11 13 14 14 13 14 13 16 12 12 12 13 14 14 15 15 15 14 15 14 14 14 15 14 14 14 13 12 12 11 10 10 11 11 10 10 11 11 10 10 10 9 8 7 6 6 8 10 10 11 10 10 11 10 9 9 9
7 7 7 8 8 9 9 8 9 5 6 6 6 5 2 3 4 9 6 8 8 9 9 5 7 8 9 11 8 6 7 8 8 10 9 9 9 9 10 10 11 12 14 14 14 13 14 14 15 11 11 11 11 12 12 12 12 13 12 12 11 11 12 12 13 13 13 12 11 11 11 11 11 10 10 10 10 9 9 9 8 9 8 7 5 6 7 9 9 10 10 10 10 10 9 9 8
8 7 6 9 9 8 8 10 5 2 5 4 8 5 5 6 7 8 9 6 8 9 8 10 6 8 10 9 5 6 7 7 8 8 9 10 8 8 9 9 11 12 13 14 15 13 14 14 13 13 11 10 10 10 10 10 10 10 10 10 10 10 10 10 10 11 10 12 12 12 11 11 10 10 10 10 9 8 8 8 8 8 7 6 5 5 7 8 9 10 10 10 10 10 10 9 8
10 6 8 8 9 8 4 5 3 2 5 10 7 4 3 6 10 8 10 8 9 8 8 2 10 5 7 7 7 8 8 7 7 8 8 7 9 8 8 9 11 13 12 13 14 15 15 13 12 13 12 9 9 8 8 9 9 8 9 9 9 10 10 10 9 9 12 13 13 12 12 11 10 10 9 9 10 8 8 8 8 8 7 6 5 4 6 8 9 10 10 10 10 10 10 9 8
9 5 6 9 5 7 5 8 4 6 7 8 4 4 7 8 7 10 9 9 10 7 8 7 5 10 10 9 8 7 7 8 8 7 6 7 8 8 10 10 11 11 11 12 13 14 13 12 11 12 13 12 11 9 8 7 8 8 8 9 9 9 10 9 9 9 11 13 13 13 12 12 12 11 10 10 9 8 8 8 8 8 7 6 4 4 5 8 9 10 10 10 10 10 10 9 8
10 3 6 8 5 8 8 8 7 11 7 6 8 7 8 3 6 3 11 11 10 9 8 6 7 7 6 8 7 7 9 10 9 8 7 7 8 9 10 10 9 10 10 11 11 12 12 12 12 11 12 11 11 9 9 9 8 8 7 7 7 8 8 8 9 9 10 12 13 12 12 13 13 12 11 11 10 9 7 8 7 8 7 6 4 4 5 7 9 10 10 10 10 10 10 9 8
8 4 6 8 9 7 9 10 2 10 8 3 8 5 9 7 3 7 8 4 9 7 5 7 1 4 6 3 11 13 15 12 10 8 7 8 8 9 10 10 10 6 8 9 10 10 11 11 11 10 11 10 10 9 9 10 9 7 7 8 7 7 8 7 8 8 10 10 11 12 13 12 12 11 12 11 11 9 9 8 8 8 8 6 5 3 5 7 9 10 10 10 11 10 10 9 8
6 7 7 7 10 9 7 8 7 6 9 6 8 11 8 9 6 6 6 7 10 8 4 7 6 1 7 10 16 18 15 12 10 10 8 7 7 7 8 7 9 8 6 8 8 7 9 9 10 7 9 8 9 7 8 9 9 8 8 7 7 7 8 8 7 9 10 10 10 10 10 10 10 10 11 9 12 9 7 7 9 9 6 6 5 4 5 8 9 10 10 10 11 11 10 10 9
6 8 8 8 7 9 7 9 6 10 7 8 7 6 7 9 9 7 7 9 9 8 9 8 6 8 11 16 17 16 15 13 11 9 7 7 6 7 5 8 6 8 8 7 8 8 8 8 9 6 4 5 3 5 2 3 8 10 9 10 10 9 9 10 10 11 12 10 10 9 8 7 7 8 8 11 8 10 10 10 10 9 7 4 4 5 5 8 9 10 11 11 11 11 14 8 7
8 7 8 7 7 3 5 9 7 2 8 3 7 3 2 11 10 9 10 8 9 10 10 9 9 11 14 16 17 15 14 12 11 9 8 7 6 7 7 5 8 8 7 6 7 9 7 5 7 6 7 5 6 4 1 1 8 7 8 9 8 12 11 13 11 11 10 10 10 9 7 3 1 4 3 6 6 9 10 11 11 11 9 6 4 6 7 8 10 10 11 11 11 13 11 6 6
10 8 8 9 2 7 6 4 8 5 2 4 3 6 7 12 7 8 7 10 10 10 9 9 9 12 13 15 14 13 13 12 10 8 8 7 5 6 5 8 6 7 9 6 6 6 7 8 5 6 8 9 7 3 4 1 1 1 4 7 8 8 9 10 11 10 7 7 9 6 3 2 3 3 2 2 9 8 8 10 11 11 11 8 8 6 8 8 10 10 10 10 9 8 6 6 6
8 10 8 6 6 4 6 4 4 5 3 3 2 6 4 8 2 10 8 9 9 10 8 8 10 11 13 11 12 12 11 11 9 9 7 6 6 4 4 4 5 7 5 8 5 6 4 6 5 7 8 9 8 6 3 4 1 0 4 4 6 6 6 8 7 8 5 0 3 3 3 2 3 2 2 2 3 2 5 7 8 8 8 8 10 7 7 8 9 9 8 9 7 7 6 4 5
3 11 12 7 2 7 10 6 4 3 2 1 6 11 9 6 5 6 10 8 6 8 9 9 12 13 14 12 11 11 11 9 9 8 7 7 7 6 5 4 5 6 5 5 6 8 6 3 5 5 6 7 6 5 5 2 5 4 4 4 3 4 6 5 5 4 4 4 4 4 3 3 2 2 3 1 2 1 3 3 7 7 9 9 11 8 8 8 8 8 8 9 8 6 4 3 4
8 9 11 3 3 7 9 6 7 4 4 3 3 3 7 10 9 6 5 5 7 9 9 8 12 12 13 14 12 10 11 9 8 8 8 8 7 6 4 4 3 5 6 9 5 7 9 7 6 6 6 7 8 6 4 6 7 5 4 4 3 2 2 3 6 5 5 4 1 2 4 4 2 2 3 2 2 2 3 2 6 6 8 9 9 7 8 8 7 7 7 8 7 6 6 5 4
12 6 11 8 6 2 9 6 7 5 4 2 2 7 7 3 10 3 6 6 5 8 7 10 11 11 12 13 12 12 10 9 8 7 7 7 7 6 6 6 4 3 5 9 6 6 10 8 6 5 4 5 7 7 8 6 6 6 5 5 6 5 3 4 5 2 2 2 4 2 2 2 2 3 3 3 3 2 3 5 5 8 7 8 8 6 7 7 7 7 7 8 7 7 7 6 5
11 11 6 8 8 8 5 5 9 4 4 3 5 9 6 8 10 10 10 7 7 8 7 11 10 11 11 12 12 10 10 9 9 8 7 7 7 6 6 7 11 12 9 9 4 5 5 5 10 13 9 7 6 9 8 6 5 5 5 2 3 1 3 4 1 2 1 3 7 6 1 1 0 2 2 3 2 3 2 4 8 6 6 6 7 6 6 7 7 6 6 7 7 6 5 5 5
12 12 5 5 8 9 8 7 6 8 4 5 9 6 8 4 11 8 10 7 6 8 10 10 11 11 11 11 12 10 9 9 9 9 7 7 7 7 14 11 8 4 2 2 2 4 5 4 5 6 5 8 8 7 6 6 5 4 3 3 3 2 1 3 2 2 2 2 2 4 5 4 2 2 3 3 3 3 3 5 4 3 7 5 6 6 6 6 6 7 6 7 7 5 6 5 4
13 12 9 8 10 10 10 11 10 8 7 10 9 9 9 7 11 9 7 7 8 9 10 10 10 11 11 10 9 9 10 8 8 8 8 7 7 11 7 5 3 1 3 2 2 2 3 6 5 2 4 3 6 6 5 5 4 4 4 4 3 2 4 4 3 2 3 2 2 3 4 4 5 3 4 6 3 5 5 5 4 5 9 5 4 5 5 6 6 6 7 7 6 5 4 5 5
4 9 10 8 8 10 11 11 12 9 7 12 8 12 10 10 6 5 10 8 7 10 10 10 9 11 11 10 9 8 9 7 7 10 7 7 7 8 7 3 1 3 2 2 2 3 2 6 5 4 3 4 3 5 2 4 4 3 3 4 2 4 5 6 5 3 3 2 2 2 4 4 3 1 5 4 4 3 4 6 5 10 7 6 5 5 6 5 6 6 8 7 6 4 5 5 5
6 9 10 11 8 10 11 13 10 12 12 12 11 11 10 11 9 8 8 6 9 11 10 10 10 11 11 10 9 9 8 7 6 8 10 8 8 7 7 3 0 1 2 2 3 3 4 4 6 4 2 2 3 4 3 0 1 2 2 1 6 8 7 5 4 7 7 5 5 6 4 5 6 3 3 3 3 4 4 5 8 7 8 4 6 6 7 6 5 6 6 6 6 6 5 5 4
6 9 10 12 11 12 15 12 14 14 10 15 12 10 10 13 11 9 8 6 5 9 10 9 8 11 10 10 9 9 8 8 10 12 9 9 10 9 7 5 3 1 2 4 2 4 3 3 3 4 2 2 2 2 3 3 0 3 4 4 2 1 3 4 4 3 8 7 5 6 5 6 6 5 6 5 5 5 4 6 5 8 8 7 3 6 5 6 6 7 7 7 7 7 6 6 6
9 9 11 9 11 12 17 15 15 16 12 13 14 9 12 13 11 10 7 7 8 7 8 9 9 12 8 8 8 9 9 10 10 12 14 10 8 7 6 5 6 3 3 4 4 3 3 3 3 2 3 3 4 2 3 2 3 3 2 2 1 2 3 3 2 2 2 4 5 5 7 5 6 8 8 5 5 3 3 5 8 8 8 5 7 3 5 5 7 6 7 8 7 7 6 7 7
10 10 11 9 11 11 19 17 15 16 13 15 16 13 9 11 11 11 10 8 8 9 10 9 9 10 10 7 8 9 9 9 10 11 12 10 8 7 5 4 3 4 4 4 5 4 3 3 1 2 2 2 2 1 1 1 1 1 2 1 2 3 3 3 2 2 2 2 2 4 5 5 6 7 7 8 5 5 6 6 6 2 3 6 7 7 3 6 5 7 7 7 7 8 7 8 7
11 11 10 12 12 12 16 19 17 18 14 15 19 4 12 8 10 9 9 10 9 10 12 11 13 7 9 8 8 9 9 10 10 10 10 9 8 8 7 6 5 5 4 3 4 3 3 3 2 2 2 1 2 2 2 2 1 1 1 2 3 3 4 3 3 3 2 3 1 3 5 6 7 8 8 9 6 7 7 6 4 5 4 3 1 6 6 5 5 6 5 7 7 7 8 8 7
11 12 9 11 14 14 12 17 15 18 15 15 20 8 7 9 9 9 9 9 11 9 9 10 8 8 8 8 9 10 9 9 9 9 9 9 9 9 7 7 7 6 4 4 3 2 4 3 1 0 1 2 2 2 2 2 2 2 2 3 2 5 4 4 4 3 4 2 3 3 4 6 6 6 7 6 4 6 6 7 7 6 6 4 3 4 3 4 6 8 3 5 7 7 8 6 6
11 12 11 12 14 15 13 15 18 17 14 15 17 6 12 9 8 7 8 10 10 9 12 10 8 8 7 7 8 10 10 10 10 9 9 7 10 10 7 6 5 4 3 5 4 2 1 1 2 2 2 2 2 2 2 2 2 2 1 3 4 5 5 5 4 4 5 3 3 4 4 4 4 5 5 7 8 5 6 7 8 8 7 6 4 4 3 5 4 5 1 8 6 5 2 1 2
13 14 12 9 14 14 12 16 18 18 16 15 20 12 10 11 9 8 6 7 8 6 5 7 9 7 6 7 8 10 9 11 9 9 9 9 8 7 6 6 5 4 3 3 4 3 2 2 1 1 2 2 2 3 2 2 2 2 2 2 4 5 5 5 3 5 5 5 4 4 5 4 4 4 5 7 7 7 8 8 6 6 7 6 7 6 6 4 5 7 9 9 4 5 0 2 1
12 14 13 8 14 10 12 16 19 18 15 15 16 13 10 11 9 9 9 8 9 8 8 7 7 5 5 10 7 9 10 9 9 9 8 9 7 6 7 6 5 5 4 4 5 5 3 3 2 1 1 2 2 3 3 4 4 3 3 3 4 4 5 5 4 5 6 6 6 6 5 6 6 6 6 8 7 6 6 6 8 6 5 7 7 6 6 6 4 5 5 4 6 8 4 3 4
11 13 13 10 13 10 12 14 20 17 16 13 15 14 11 10 10 10 10 10 10 8 9 8 8 8 9 9 7 12 11 10 12 11 11 8 7 7 7 7 7 7 5 5 6 6 4 3 2 3 1 0 1 3 3 4 4 3 2 3 3 4 4 5 6 6 6 7 8 7 7 7 7 7 7 8 8 8 7 7 7 8 8 8 7 7 8 6 4 4 6 5 5 8 6 7 7
9 12 12 11 12 9 12 10 16 17 16 8 12 13 10 10 10 10 11 12 11 11 11 11 11 11 11 12 13 12 12 11 12 14 13 13 15 14 10 10 10 11 10 10 7 4 4 3 1 1 1 1 1 3 1 2 3 3 1 3 2 4 5 5 8 5 5 6 7 7 7 7 8 8 9 9 8 9 9 8 7 7 8 7 5 7 8 8 7 7 8 8 4 3 3 4 8
9 12 12 11 13 14 12 13 12 8 6 11 14 11 9 11 10 12 11 12 12 12 12 12 11 12 13 13 11 11 11 11 13 12 11 12 12 12 11 10 9 9 10 10 9 9 7 5 3 2 1 2 1 2 4 3 4 3 4 3 4 3 5 5 7 6 8 7 8 7 8 8 9 9 9 9 8 9 9 9 8 7 7 7 7 6 7 8 8 8 7 8 8 7 6 7 7
12 12 11 10 16 13 11 12 13 13 12 13 15 10 8 10 10 9 11 12 13 12 11 11 11 11 11 11 12 12 12 11 11 12 12 11 12 12 11 11 10 10 10 9 9 8 6 7 5 3 1 2 2 4 5 4 3 3 3 4 5 4 6 7 5 7 7 7 6 6 8 9 8 8 9 10 10 9 9 9 9 9 9 8 8 9 8 7 8 9 10 8 9 9 9 7 7
11 14 13 12 11 15 14 16 16 11 10 13 16 10 10 11 11 10 10 9 11 10 10 10 10 10 10 11 11 11 11 12 12 11 10 10 10 11 11 12 11 9 9 8 8 9 10 9 9 8 4 3 2 5 5 4 4 4 4 4 4 3 5 3 4 4 8 8 7 5 8 9 9 8 9 10 10 9 9 9 10 10 9 9 9 10 8 6 9 10 10 8 11 9 7 6 6
11 13 15 15 12 15 17 18 14 13 12 15 16 12 8 11 12 11 10 10 10 8 9 9 9 9 9 10 9 9 9 10 11 10 10 10 10 10 10 10 10 9 9 8 8 8 9 9 10 10 6 5 6 6 7 5 4 4 4 5 4 4 4 5 5 6 8 7 6 7 7 8 9 9 10 10 10 10 9 8 9 10 10 10 10 9 9 9 8 10 9 7 7 8 8 8 8
10 11 16 11 8 14 13 16 14 10 9 14 18 14 8 10 11 13 11 12 10 9 8 9 8 10 10 9 9 10 10 9 9 9 10 10 10 9 10 9 8 8 8 8 7 8 9 8 8 8 7 7 7 9 9 8 7 4 5 6 5 6 5 8 7 8 7 6 7 8 7 8 8 9 9 10 10 10 10 10 10 9 10 10 8 10 10 9 9 10 9 9 6 6 8 8 8
9 12 15 9 13 13 15 13 13 11 12 12 15 19 11 8 10 13 14 11 10 9 8 8 9 9 9 9 9 9 9 10 9 9 10 10 9 9 9 9 8 8 8 8 8 7 7 7 7 7 7 7 7 8 9 9 9 9 7 5 5 4 8 9 6 6 7 8 8 7 8 8 8 9 10 10 10 11 10 10 10 10 10 10 8 10 9 10 10 9 9 10 10 9 8 8 7
14 15 15 11 7 9 13 12 13 12 11 10 14 15 12 11 13 11 14 12 11 10 9 7 8 9 8 8 9 9 9 8 8 9 9 9 9 8 8 8 8 8 7 7 7 6 6 6 7 7 8 7 7 7 7 9 10 8 8 8 6 5 6 6 5 4 7 7 9 9 8 7 8 8 9 10 9 10 10 10 10 10 10 10 9 10 10 9 10 10 10 11 11 12 11 9 9
16 14 14 14 10 9 11 11 11 11 12 15 16 17 15 6 9 11 12 12 11 11 9 9 9 9 9 9 9 8 8 8 7 8 9 9 8 8 7 8 8 8 7 7 7 7 6 7 7 7 7 7 7 8 8 8 8 8 8 9 10 9 8 7 7 7 5 6 8 8 7 7 7 8 8 8 9 10 10 11 10 10 10 9 10 10 9 9 9 11 11 12 13 12 10 10 9
13 9 13 13 12 11 9 9 9 10 12 13 13 17 19 13 11 10 6 8 15 12 11 10 9 9 8 8 7 7 7 7 7 7 8 8 8 8 7 8 8 8 8 8 7 7 6 6 7 8 8 8 8 8 8 8 7 8 8 9 10 11 10 7 7 8 7 6 8 9 9 7 7 8 8 9 9 9 9 9 10 10 9 9 10 9 9 9 8 9 9 9 8 11 10 9 9
10 13 14 15 11 8 9 10 11 12 10 12 15 16 16 5 6 12 12 13 13 12 10 10 9 9 9 8 8 7 7 7 7 7 7 7 7 7 8 8 7 8 8 8 8 7 7 7 8 8 8 8 8 8 8 9 9 8 8 9 9 9 10 10 10 9 6 6 8 9 8 8 8 7 8 9 9 9 9 9 9 9 9 9 10 10 9 9 9 9 10 11 12 13 11 10 8
14 15 15 14 13 12 11 12 8 9 12 8 13 19 6 9 8 9 12 12 12 12 11 10 9 9 9 8 7 7 6 6 7 7 7 7 7 7 7 8 8 7 8 8 8 7 7 7 8 9 8 9 9 8 8 8 8 8 9 9 9 8 9 9 9 8 9 9 8 9 9 9 8 6 8 12 7 10 11 10 10 10 11 9 10 10 9 10 9 9 11 11 12 11 10 10 8
14 14 14 13 12 10 10 11 12 12 10 8 6 11 8 11 7 10 11 12 11 11 11 10 10 9 8 7 7 7 7 6 6 7 8 9 9 9 8 8 8 8 8 8 8 8 8 8 9 10 9 9 9 9 8 9 8 8 8 8 8 9 9 9 9 8 8 8 9 10 10 9 9 8 9 9 9 11 9 10 11 10 10 10 9 10 9 10 10 10 9 12 11 10 11 10 10
13 13 12 13 14 9 11 6 8 12 10 10 9 1 4 5 11 10 10 12 11 11 11 9 9 8 8 7 7 6 7 7 7 8 9 9 9 8 8 8 9 9 10 9 9 8 8 8 9 10 10 9 9 10 9 9 9 8 9 9 10 10 9 9 9 8 9 9 9 9 10 10 9 9 9 10 8 10 10 10 10 10 7 5 9 12 9 8 11 10 10 9 11 9 11 13 10
13 14 15 14 12 11 7 2 2 5 8 8 6 8 8 9 8 11 12 12 12 11 11 10 9 9 9 8 8 7 7 7 7 7 8 9 9 9 8 9 8 9 8 9 9 8 8 8 8 8 9 9 10 9 9 9 9 9 9 9 9 9 9 10 10 12 12 11 11 10 9 11 11 10 9 8 6 9 11 10 9 8 8 9 12 10 10 10 9 11 11 11 11 10 10 11 9
10 14 13 11 13 13 8 8 6 7 9 6 10 10 10 11 6 12 13 13 12 11 10 10 10 10 9 8 7 7 7 7 8 8 8 8 9 9 8 8 9 9 8 8 8 8 8 7 9 9 10 11 11 10 9 8 9 9 9 10 10 10 9 9 10 11 12 11 11 11 10 10 10 10 9 8 6 6 12 12 10 8 8 9 10 11 12 11 12 11 11 11 10 11 10 9 8
13 14 11 13 10 13 12 6 12 12 11 7 10 13 10 11 8 14 14 14 13 11 11 11 10 10 10 9 9 7 7 6 7 7 8 8 8 8 8 9 9 9 9 8 8 8 8 8 9 8 9 11 11 9 9 9 9 7 7 10 10 10 10 10 10 10 11 12 12 12 12 11 10 10 10 9 8 6 7 12 11 11 9 11 10 10 12 9 8 7 9 8 9 10 10 10 9
19 11 15 15 10 12 11 8 8 10 10 9 10 13 7 10 11 16 16 14 13 13 12 10 10 9 8 8 7 7 7 7 7 7 8 8 8 9 9 9 9 10 9 8 9 8 9 8 9 11 12 11 11 11 10 10 10 9 10 10 10 10 10 10 11 11 11 11 12 12 13 13 11 11 11 11 9 9 9 11 12 10 8 12 8 11 8 9 8 7 9 9 10 12 11 10 8
15 11 13 13 10 9 10 8 11 10 9 9 7 9 5 9 8 13 15 14 12 13 12 10 9 9 9 8 8 8 8 7 7 7 7 8 8 9 9 9 9 9 9 9 9 9 9 9 10 9 11 11 11 11 10 10 10 11 12 12 11 11 12 11 12 12 12 12 12 13 12 13 13 12 10 10 7 9 12 11 11 11 10 10 11 11 8 6 4 5 11 10 11 11 11 9 9
13 12 13 14 14 13 14 12 12 11 9 8 10 6 6 4 5 9 14 14 12 11 13 11 10 10 10 9 9 8 8 8 8 8 9 8 8 9 9 9 9 9 9 10 10 10 11 11 10 12 11 11 11 11 10 10 10 11 13 12 12 11 11 12 13 12 12 12 13 13 14 14 14 13 12 10 9 8 10 13 12 8 11 11 9 11 9 7 7 8 13 9 11 10 11 11 10
Wind_Direction
252 227 241 243 250 257 257 220 256 187 241 247 257 254 273 73 74 266 264 142 216 83 15 116 88 77 334 39 73 67 40 35 9 312 52 117 112 118 109 129 120 125 128 133 131 136 129 122 127 127 120 118 121 124 123 123 126 125 124 124 124 127 131 129 129 129 121 122 127 123 121 118 120 120 118 112 99 99 104 108 111 109 112 115 109 108 108 109 110 107 105 105 100 101 97 97 96
231 236 235 239 245 245 222 227 244 270 226 246 253 261 247 105 112 244 264 129 32 81 83 111 100 67 345 70 76 102 49 48 58 79 84 96 130 112 121 122 131 132 129 127 138 140 132 127 123 121 120 120 123 125 126 127 128 126 127 127 128 131 132 129 128 130 121 121 127 127 125 123 122 124 122 110 106 103 104 105 107 114 113 108 107 106 102 102 101 99 98 99 99 98 98 95 97
254 219 219 223 234 239 297 212 250 240 253 252 258 253 119 203 266 137 63 54 107 111 124 82 85 24 104 200 94 31 72 47 79 83 97 143 138 132 137 133 132 123 122 133 143 142 136 130 125 125 124 124 126 128 127 128 130 130 130 130 133 135 132 133 133 131 127 128 127 124 123 125 126 126 118 114 112 108 108 110 115 114 107 104 106 107 106 104 103 102 101 96 94 95 98 98 97
277 258 261 226 233 205 241 225 239 266 264 265 274 26 81 253 103 87 72 90 125 150 166 152 150 55 298 104 75 96 93 74 76 113 128 166 123 135 141 132 130 131 131 138 146 136 136 130 129 128 128 128 130 128 132 132 133 135 135 135 135 136 135 136 139 135 132 128 131 128 127 118 111 107 118 118 115 117 114 116 114 112 107 105 101 102 102 103 103 106 104 101 100 101 102 101 96
253 230 247 251 271 221 228 240 243 235 248 258 269 105 183 143 98 112 120 121 130 154 213 97 120 58 55 53 336 63 87 96 60 72 80 75 106 132 134 134 134 133 137 142 139 126 125 130 128 131 131 133 134 136 135 135 135 136 137 136 137 137 139 140 142 141 138 136 137 138 131 118 108 102 96 117 121 128 124 123 116 104 98 94 87 83 82 86 95 99 106 105 105 103 100 100 97
241 240 208 256 244 1 282 249 232 242 262 282 281 39 68 78 110 94 130 181 133 140 66 174 48 156 97 47 41 70 26 78 107 85 111 114 126 130 140 145 139 135 132 134 132 130 137 129 132 132 133 135 136 137 136 137 138 138 139 139 139 140 142 145 143 147 142 141 144 145 137 124 110 97 91 87 93 97 114 115 114 110 96 91 89 86 82 79 90 103 107 110 108 105 101 96 98
213 217 195 227 251 236 250 244 250 241 231 234 267 138 148 138 103 204 155 162 167 146 203 103 103 115 127 112 86 57 55 79 141 98 101 130 135 140 140 138 135 132 134 138 136 134 135 133 134 136 136 138 139 139 141 141 142 141 142 142 142 144 145 146 149 150 146 143 151 149 143 119 102 98 101 99 97 91 97 102 102 101 95 95 101 105 103 102 100 108 115 111 111 106 104 100 99
264 257 177 232 224 190 228 247 254 257 103 233 53 57 126 96 152 206 156 195 159 203 153 110 191 337 81 193 68 76 55 49 84 100 109 134 138 143 140 140 137 136 134 132 129 119 129 135 137 139 139 141 142 144 144 144 145 145 144 145 147 146 147 148 152 148 147 151 152 152 137 120 111 112 103 102 101 92 94 103 101 99 96 94 98 99 100 103 103 108 112 113 110 113 110 106 99
224 237 283 259 253 213 244 239 244 236 277 152 210 250 28 8 274 205 191 283 130 181 153 169 137 194 116 94 92 84 71 80 83 104 122 136 142 144 141 141 137 133 128 120 121 128 139 137 139 139 143 144 146 146 146 148 149 148 148 148 151 149 148 149 148 149 149 149 146 149 142 130 123 118 105 99 100 99 99 102 104 103 102 99 94 92 99 102 103 107 111 114 114 112 110 108 106
216 241 198 241 252 242 233 241 233 226 239 142 181 185 204 191 193 207 196 166 170 157 128 131 164 86 124 110 121 126 97 92 119 112 119 135 138 139 137 135 132 132 122 128 131 134 138 142 140 143 145 148 147 149 150 150 151 150 150 152 154 153 153 154 153 153 156 157 155 151 149 136 124 117 112 102 103 104 107 109 112 110 106 105 97 99 101 105 108 111 112 112 114 109 109 106 112
222 196 276 253 233 250 242 238 213 174 219 149 214 188 150 181 237 190 210 171 148 148 117 139 194 131 120 80 76 79 99 121 120 119 137 130 137 140 130 135 133 129 133 134 132 131 140 150 145 145 147 147 147 148 149 151 149 151 152 152 152 153 151 153 153 155 160 160 156 145 132 124 124 123 122 118 113 115 121 119 122 122 115 116 119 105 105 107 110 115 111 108 106 112 109 112 108
240 213 197 240 242 234 224 247 168 143 121 152 189 139 166 199 199 194 190 159 175 122 156 206 124 143 115 131 113 112 124 132 126 131 136 134 134 130 129 132 130 125 128 132 132 137 145 146 156 149 145 143 143 143 147 148 150 149 150 150 150 150 149 147 149 156 150 139 132 130 128 128 126 128 125 127 131 130 129 137 133 131 128 129 138 120 110 112 113 113 116 114 113 113 113 111 113
251 223 216 245 240 233 306 297 198 17 171 203 110 123 148 188 194 191 178 168 154 149 138 231 104 173 114 78 110 130 145 138 134 138 141 140 133 133 127 121 124 130 134 135 137 141 146 151 152 157 150 136 136 140 140 144 145 147 148 148 151 150 153 151 152 146 143 140 139 138 138 136 134 131 129 128 138 139 141 143 147 140 138 144 148 137 116 119 117 119 121 121 119 116 116 112 114
241 244 249 242 239 286 261 229 228 183 216 105 88 136 194 188 191 180 185 150 170 158 91 114 162 89 102 138 139 155 147 141 140 145 145 136 129 128 124 125 126 134 134 132 140 143 150 151 148 152 150 155 152 146 139 135 143 146 146 153 152 155 156 158 156 143 146 145 145 145 148 145 139 136 135 135 139 148 149 153 155 151 146 155 161 144 125 126 127 124 122 123 120 117 113 113 112
241 277 262 265 263 221 241 260 208 224 128 161 112 202 167 350 186 174 182 160 88 82 98 46 40 181 141 160 150 152 141 156 150 153 144 139 130 125 127 127 133 127 128 136 144 148 149 148 150 148 155 158 155 157 159 144 139 143 148 152 154 155 158 162 159 150 146 148 151 150 149 149 144 143 140 139 136 144 151 157 161 156 156 163 170 146 133 135 134 131 127 125 122 116 113 114 111
257 255 233 248 245 238 193 236 279 229 111 184 147 141 182 150 205 205 53 62 110 107 197 112 56 17 145 123 128 130 133 146 155 150 146 139 141 135 130 132 115 104 125 137 149 145 150 151 151 149 156 157 157 155 154 153 145 146 152 153 152 157 160 161 167 157 155 155 154 156 156 156 151 149 144 141 144 145 154 183 156 164 160 165 168 146 142 142 141 136 128 126 123 120 115 114 114
256 255 239 234 244 225 147 220 162 227 94 123 161 178 168 165 166 33 112 93 145 139 91 71 92 275 71 98 102 119 129 134 149 144 144 140 143 139 137 133 138 128 140 153 139 148 150 154 150 142 144 164 153 144 143 151 154 154 157 154 159 161 166 172 164 168 166 167 167 167 170 175 163 155 160 152 148 156 163 140 163 165 166 164 158 145 140 148 146 138 133 126 126 127 125 124 120
230 223 234 218 249 229 127 223 157 53 102 119 158 180 180 146 168 138 172 163 125 145 114 111 100 85 93 93 108 120 126 136 140 146 148 147 152 146 148 143 148 152 155 165 160 155 161 146 136 121 92 107 91 60 101 157 156 179 177 169 182 174 176 180 181 184 184 179 188 176 192 181 170 160 165 147 166 144 147 155 160 163 162 163 140 131 141 149 151 142 136 138 135 138 150 147 141
220 222 233 236 223 52 106 47 59 270 88 45 124 193 242 147 173 152 173 150 148 147 123 128 102 100 106 109 117 122 128 133 146 145 147 148 155 154 147 158 154 148 158 164 160 154 151 126 123 133 133 102 65 94 358 192 169 189 181 180 183 187 187 196 191 189 185 181 185 181 181 190 352 76 129 163 155 160 146 158 160 161 162 152 135 122 144 150 152 147 146 148 155 168 184 155 154
228 247 215 245 238 107 87 68 92 42 37 97 130 154 250 122 191 167 189 164 161 158 143 152 130 123 118 121 122 125 129 140 145 150 151 147 128 130 152 154 159 150 160 169 152 148 155 160 135 132 127 123 145 124 163 217 304 101 233 194 184 191 196 203 199 201 174 184 179 166 133 180 97 82 345 174 151 146 144 157 161 163 161 158 150 153 140 153 151 149 155 161 180 189 207 158 157
187 236 234 234 134 145 136 166 88 87 329 94 156 150 163 137 102 191 136 165 190 138 145 170 137 136 128 132 127 129 137 143 150 153 156 137 121 125 126 139 153 148 143 146 143 156 158 124 134 149 133 137 151 136 155 190 116 348 251 240 189 199 209 202 209 204 137 244 124 70 143 169 133 122 180 127 143 143 162 173 171 177 173 171 180 176 179 154 174 172 168 188 199 201 202 167 157
207 229 244 27 78 240 139 128 110 64 134 257 138 189 149 135 170 243 164 200 175 141 161 136 143 130 138 139 128 139 142 148 150 154 143 123 121 118 116 101 112 96 118 130 144 129 128 142 128 134 131 152 126 143 143 143 183 221 238 217 238 187 225 230 242 203 108 200 171 141 147 174 156 182 183 8 56 170 245 229 193 185 179 173 193 179 187 168 188 182 183 189 204 205 180 162 155
238 213 259 271 212 209 139 140 135 219 146 151 211 49 109 178 164 198 206 37 100 110 127 124 123 132 135 137 136 145 143 151 158 148 133 133 125 116 102 90 89 133 168 145 181 134 142 155 145 146 147 152 128 140 123 158 204 203 218 244 251 266 308 251 237 220 149 161 85 161 164 178 185 188 207 162 196 229 237 254 262 202 179 176 195 189 180 170 195 182 194 194 206 196 176 166 158
248 231 200 213 213 233 164 141 149 176 173 91 344 152 195 139 164 154 128 85 81 83 109 105 111 124 131 135 138 144 142 151 147 133 124 118 113 103 87 77 61 37 40 60 67 130 130 153 168 150 165 150 140 140 176 183 192 194 205 221 230 177 230 221 243 306 61 164 162 181 161 187 182 194 214 191 199 290 232 257 244 253 179 181 195 187 187 184 196 186 197 206 210 189 181 171 167
224 252 182 199 191 207 165 175 183 163 181 148 143 181 158 207 145 192 106 127 128 126 122 113 118 132 131 129 130 135 140 140 135 124 120 113 106 92 80 56 37 28 4 54 322 109 113 124 155 160 166 185 142 174 167 181 185 192 190 209 254 181 223 280 307 338 2 66 138 161 277 189 206 304 271 241 154 223 302 251 250 245 212 188 181 200 199 188 189 204 199 208 211 193 171 166 160
230 237 202 191 192 193 194 185 185 184 189 140 168 167 144 78 132 168 125 111 118 137 128 131 133 124 127 124 129 142 129 132 127 127 113 108 102 88 49 33 43 41 359 111 189 45 68 144 79 85 140 143 149 181 169 159 178 161 157 178 282 311 281 276 297 38 339 186 135 113 176 153 116 183 327 286 246 245 191 246 248 300 252 191 188 198 210 198 193 191 209 213 209 193 177 172 176
188 216 231 198 190 194 183 196 184 180 193 161 197 157 150 151 208 124 152 121 139 160 131 137 146 123 122 123 124 125 126 124 120 106 80 97 99 72 65 53 74 318 37 53 70 70 108 94 101 106 123 140 156 159 154 150 164 169 178 184 171 164 197 233 243 176 250 210 175 151 110 124 137 186 194 253 245 233 239 254 245 192 250 181 212 203 208 206 202 191 208 211 217 191 179 158 190
250 207 212 216 194 201 174 209 188 186 172 182 208 161 154 157 220 105 122 143 162 149 154 154 136 124 117 117 118 113 109 104 106 107 108 84 63 86 76 50 62 344 121 103 89 98 132 102 107 131 134 145 166 122 142 145 160 175 183 205 188 219 235 170 216 213 155 223 168 111 110 105 80 155 157 223 243 256 281 284 282 237 216 187 203 210 200 213 206 203 204 210 218 199 182 174 195
220 222 207 196 208 203 190 192 197 195 173 179 208 140 174 185 144 100 110 150 177 157 164 159 135 126 113 114 114 108 100 98 95 96 78 71 76 89 94 165 54 25 90 84 79 116 119 106 128 120 183 131 141 133 165 148 187 202 225 190 211 219 207 223 191 199 153 206 171 148 140 129 125 211 170 177 248 242 246 282 277 313 260 200 192 202 203 202 219 200 200 211 209 211 197 178 197
216 207 225 183 199 212 192 194 194 200 147 186 188 187 182 178 112 130 140 147 210 167 161 147 150 125 127 121 107 102 105 89 62 72 74 76 94 97 119 135 130 155 101 122 143 116 91 104 112 137 160 157 170 163 180 153 266 285 241 223 261 195 245 216 189 198 162 180 167 159 138 134 158 175 191 195 209 224 218 238 252 273 299 240 191 196 199 203 207 212 196 202 206 212 194 183 195
217 202 230 205 192 203 182 199 173 196 137 186 197 220 181 139 143 142 147 166 153 194 161 154 151 124 115 124 115 105 96 83 81 81 93 97 84 97 120 151 149 134 105 117 124 88 100 88 121 136 165 167 188 195 191 186 173 211 204 247 243 265 242 240 244 215 195 190 163 149 147 181 194 180 175 184 211 227 216 234 234 207 261 295 240 193 221 205 214 214 204 202 198 206 200 195 200
211 200 209 220 203 185 180 195 167 201 150 186 198 240 130 141 140 156 161 163 190 178 175 155 146 114 138 125 124 110 96 88 80 80 86 91 107 106 89 79 115 90 82 102 112 127 121 97 94 125 179 162 186 192 232 247 198 206 283 299 252 259 274 269 244 247 259 191 174 140 151 169 195 188 179 171 189 224 224 231 254 289 259 301 331 269 218 230 225 213 212 212 195 201 203 200 201
208 217 190 217 201 183 166 187 176 206 156 188 207 175 132 135 143 142 156 166 172 196 166 179 120 147 150 139 122 119 111 95 82 77 83 91 96 110 113 102 90 95 103 107 120 130 130 140 137 123 143 196 173 221 234 221 274 263 290 305 301 281 276 283 272 282 259 262 177 162 164 183 206 187 183 175 184 209 221 226 242 256 269 228 275 306 281 269 252 221 227 215 212 205 206 202 203
202 209 204 215 212 164 175 174 183 202 174 185 209 197 107 123 126 137 154 165 176 193 156 159 144 141 127 139 133 120 110 91 79 73 74 85 88 86 97 97 99 100 99 91 92 132 146 136 129 117 153 188 178 235 233 256 246 255 253 258 263 281 279 278 294 289 289 281 264 230 194 200 209 213 178 201 181 217 224 222 226 239 247 236 214 262 282 279 283 273 245 246 226 212 214 204 203
192 192 217 186 225 159 184 177 178 205 179 187 201 141 142 124 114 108 130 157 184 181 155 170 152 144 143 132 136 111 87 89 77 76 76 88 97 105 107 108 110 113 120 123 148 150 219 166 159 169 214 203 200 235 263 250 262 263 297 292 266 262 270 280 290 292 281 280 261 257 254 246 229 222 229 201 173 222 234 221 228 231 236 228 206 218 238 247 271 329 98 263 267 258 53 117 227
195 195 211 190 210 165 203 176 176 192 183 186 196 152 140 133 106 101 98 149 155 104 95 139 150 149 138 127 97 98 95 73 72 72 76 72 80 96 99 94 101 114 111 124 139 140 129 124 118 168 240 253 208 211 224 251 241 228 216 230 281 270 272 279 279 281 283 275 269 259 261 255 242 238 233 237 224 202 226 219 223 224 224 232 229 217 221 240 208 217 236 224 224 291 90 241 295
193 195 215 191 210 187 177 180 170 189 186 199 172 149 135 120 109 94 109 115 115 113 95 98 92 110 104 65 75 90 76 68 69 60 69 83 89 92 94 95 106 111 123 131 126 129 143 138 130 137 351 246 246 230 223 227 224 218 221 224 257 292 296 281 269 270 276 276 283 281 266 261 268 256 242 244 239 229 230 226 227 223 240 236 219 221 220 222 219 212 233 201 181 216 191 207 264
198 197 205 193 215 197 174 172 161 185 202 176 174 148 143 113 112 107 98 101 93 103 110 115 104 73 64 72 72 53 65 61 52 47 39 59 87 95 89 90 88 92 96 125 122 117 120 123 120 97 119 228 234 237 256 249 250 243 255 257 266 285 283 291 289 260 263 273 275 272 264 260 258 254 242 244 242 236 234 232 234 225 221 226 221 225 226 208 207 223 214 203 177 206 195 163 204
204 207 198 201 197 186 120 146 182 183 210 129 137 156 141 121 109 106 100 91 83 77 72 65 70 71 67 68 79 81 77 66 59 51 47 44 41 39 42 49 47 42 43 42 53 92 113 121 110 108 93 267 350 334 285 267 277 290 224 297 285 303 303 299 279 317 284 272 266 264 262 253 250 249 239 234 246 246 239 232 230 231 218 215 220 234 218 210 209 220 220 208 170 189 190 170 202
210 210 200 208 188 193 161 166 179 159 198 156 171 158 144 117 106 99 97 99 95 86 76 67 69 68 65 60 60 67 65 59 56 49 43 39 40 41 42 41 43 46 42 36 27 32 40 35 15 331 345 301 323 322 320 337 332 321 304 246 263 231 275 270 272 269 259 257 263 260 261 263 258 258 257 248 246 248 243 243 236 228 222 211 219 216 212 212 212 219 201 204 198 200 200 208 193
216 222 211 206 202 172 163 150 184 173 202 173 181 166 160 171 144 123 113 112 112 106 88 77 66 71 73 69 65 61 59 59 58 51 43 38 39 39 38 36 37 38 31 30 28 22 12 11 26 56 327 273 254 257 274 304 312 282 244 252 253 229 246 252 239 262 253 261 261 263 258 260 259 257 261 260 256 256 254 251 248 239 231 216 217 222 218 210 211 209 200 202 208 206 205 209 203
204 225 226 211 198 144 184 165 181 182 177 190 184 186 194 170 172 147 131 115 98 96 90 81 76 65 63 64 62 63 66 62 59 54 48 42 44 40 33 33 34 32 29 21 20 15 9 7 360 348 347 344 300 263 274 284 282 270 264 245 248 275 280 290 288 298 281 253 256 259 256 261 260 249 244 249 253 258 258 256 253 249 236 220 216 221 216 203 223 204 202 208 210 202 206 205 217
203 200 229 217 192 182 189 163 178 187 193 182 196 203 187 170 178 161 152 121 107 102 97 86 76 69 63 62 59 61 63 64 62 57 50 47 43 44 38 35 31 29 24 22 23 20 17 8 360 357 349 341 338 341 334 325 303 276 261 268 262 257 270 281 272 265 249 268 267 258 257 254 258 256 248 251 254 256 254 249 246 244 247 238 222 218 216 212 214 220 203 202 208 201 203 213 197
213 174 213 229 222 192 153 175 192 200 192 176 200 220 199 178 181 165 148 134 124 122 119 101 81 75 71 67 66 67 63 65 65 58 55 52 48 44 43 39 34 30 26 27 27 22 18 14 4 357 354 349 355 349 339 330 313 294 270 268 263 275 262 270 257 261 281 273 262 257 258 260 255 255 253 246 250 250 248 247 244 244 244 241 227 222 218 217 218 221 200 196 202 194 198 204 205
205 168 199 222 219 184 176 192 193 213 185 190 197 211 226 185 168 165 167 159 146 140 131 123 94 87 78 72 73 73 71 67 63 60 56 51 48 45 43 41 37 32 28 26 25 20 17 8 4 2 0 353 351 346 337 335 331 322 308 274 263 263 267 257 251 281 286 279 266 256 256 260 256 251 253 252 243 244 245 245 246 245 242 241 232 235 224 216 212 207 199 198 205 202 202 209 214
235 169 189 212 228 182 190 200 203 212 210 199 198 205 231 198 159 176 179 186 164 143 122 108 108 94 84 80 77 75 74 70 67 66 66 59 51 49 47 44 41 37 32 29 27 29 22 17 13 11 6 354 348 340 341 338 331 324 315 310 293 273 269 277 266 253 259 275 269 271 261 253 257 254 248 252 250 243 243 245 245 246 244 239 234 241 232 224 215 205 194 200 195 203 207 206 214
235 173 183 201 203 201 200 216 216 214 225 210 189 205 224 190 171 182 186 198 159 141 126 119 107 99 91 83 74 74 73 68 62 63 61 60 55 50 44 44 38 36 33 30 29 24 21 19 11 7 12 3 355 352 344 335 327 326 316 315 307 304 297 285 281 266 269 281 281 270 264 261 260 255 253 247 247 243 243 242 246 244 241 241 237 235 230 223 221 212 200 190 193 199 206 205 209
230 184 200 190 199 210 210 218 224 229 227 216 187 203 205 235 185 195 136 109 123 139 138 123 110 98 89 81 76 70 70 69 64 56 52 50 50 41 38 37 34 29 26 24 25 20 14 16 8 4 14 5 2 358 349 345 334 330 329 325 314 315 315 307 288 288 269 271 276 281 272 256 254 255 251 254 252 245 239 238 237 241 243 239 233 230 227 218 215 209 198 186 195 205 206 206 210
185 193 201 197 182 186 205 199 209 223 234 194 204 215 198 214 51 114 113 113 104 113 120 115 112 104 92 86 81 73 66 65 61 58 54 47 40 37 30 29 28 26 21 16 18 11 8 9 8 2 8 1 360 0 353 349 343 339 330 324 325 320 317 316 312 301 301 271 259 266 275 271 264 267 266 261 257 256 248 241 239 234 239 232 232 226 224 210 205 199 196 189 195 199 202 204 204
184 199 198 194 189 187 204 200 207 220 226 260 212 205 190 103 110 126 122 115 114 118 111 110 109 101 95 93 91 82 73 67 58 49 48 48 41 35 32 26 27 25 20 18 13 10 7 2 3 359 3 357 351 356 353 352 346 340 338 332 330 324 321 314 305 305 308 307 298 286 280 278 273 259 276 270 246 259 250 247 242 237 238 237 230 227 217 218 201 214 194 198 192 198 202 204 206
194 210 204 203 205 187 195 202 202 205 208 185 231 225 146 176 160 137 128 124 128 120 116 119 115 109 99 92 88 82 77 66 58 51 46 42 40 37 32 28 26 23 21 19 15 10 7 6 5 359 1 1 353 355 351 350 346 347 340 334 330 333 329 325 320 311 300 297 299 299 292 284 278 273 264 266 284 266 264 254 249 248 242 246 236 226 214 213 206 213 204 196 190 194 197 199 199
199 212 217 212 217 176 210 200 232 202 201 187 187 134 49 90 122 131 143 141 131 125 119 122 116 116 110 94 82 77 69 62 53 52 48 43 38 35 34 28 26 22 21 20 19 15 11 8 5 3 3 359 356 355 354 345 345 341 339 342 341 339 330 324 313 310 309 301 293 284 282 281 278 275 276 280 298 291 274 269 261 250 252 245 246 231 214 224 215 212 210 199 201 197 197 202 204
184 210 211 213 211 206 198 186 2 356 236 200 139 108 102 116 141 144 151 157 152 140 135 118 111 106 97 92 88 79 72 63 59 54 50 46 41 38 36 33 32 29 25 23 26 20 16 13 12 11 9 9 6 357 354 347 344 339 337 340 337 332 328 327 322 317 315 312 301 289 280 279 280 274 271 269 272 284 274 262 262 266 257 236 229 222 222 215 211 213 215 202 201 196 201 205 205
175 213 212 218 230 234 212 218 187 222 214 180 169 171 159 170 155 164 164 158 159 152 133 120 117 113 105 96 87 81 73 67 61 57 56 52 48 43 37 39 41 37 29 29 25 24 21 16 12 16 15 11 11 6 359 353 349 343 342 339 334 328 327 327 323 322 317 309 304 300 294 285 279 274 272 273 263 270 283 263 248 245 252 242 237 227 227 216 215 211 212 209 201 197 197 198 201
221 203 195 216 185 218 205 216 208 207 214 186 201 174 175 203 141 164 171 165 155 142 133 132 128 116 106 102 95 88 80 72 62 58 54 48 47 46 40 39 41 36 36 30 27 21 20 19 17 6 27 16 10 6 5 2 356 352 342 336 332 332 334 334 331 324 320 310 302 300 296 296 293 281 271 268 265 242 260 279 266 242 238 246 231 233 229 226 211 230 228 214 204 198 198 200 198
235 227 204 219 232 211 218 206 224 218 221 207 195 191 197 213 157 172 166 161 159 149 144 128 118 113 109 106 100 90 83 72 64 57 53 51 49 44 43 38 36 36 32 28 26 23 20 16 16 10 13 20 16 7 8 4 3 357 346 340 339 336 338 337 334 330 320 311 306 307 306 300 296 288 281 279 271 260 249 258 259 252 242 226 217 233 245 235 219 227 232 217 210 203 204 204 199
198 215 214 197 221 206 242 200 225 207 218 210 198 194 132 54 138 156 156 153 156 151 134 121 118 113 109 103 95 89 81 74 64 58 53 50 47 44 44 41 36 36 32 29 24 22 19 16 18 22 21 11 14 6 5 12 4 358 352 348 343 340 340 340 339 334 327 324 324 315 307 308 304 295 286 280 276 273 273 266 258 254 242 231 209 223 235 247 258 237 245 232 211 204 207 203 205
193 207 214 207 195 198 202 213 211 227 214 219 211 188 80 67 336 165 138 140 151 137 124 120 119 115 108 101 93 87 82 73 71 64 58 51 47 47 43 41 41 36 31 26 27 24 21 20 15 13 21 18 11 8 4 9 11 0 357 355 349 344 344 341 341 337 335 334 327 322 313 307 307 304 304 306 308 296 282 271 277 295 262 216 199 216 224 225 211 215 236 223 227 217 215 210 206